Location: Christchurch
(43.5330°S, 172.6330°E)
Time: 15:45:40
(UTC+13:00)

BREEZE-M DEB (TANK) - Pass Details

Date: 24 January 2019
Orbit: 278 x 14014 km, 46.1° (Epoch: 19 February)

Event Time Altitude Azimuth Distance (km) Brightness Sun altitude
Rises 22:18:34 0° 294° (WNW) 4,424 7.3 -11.9°
Reaches altitude 10° 22:22:47 10° 294° (WNW) 2,368 5.8 -12.5°
Maximum altitude 22:27:09 75° 20° (NNE) 422 1.5 -13.1°
Enters shadow 22:28:54 15° 104° (ESE) 988 3.3 -13.3°
